Content
SEND FEEDBACK

Daily
Averages
Monthly
Summary
France

LE HAVRE, FRANCE


Home > Europe > France
Elevation: 338 feet     Latitude: 49 31N     Longitude: 000 04E

WEATHER
 
SELECT A DAY
Number of Records: 184,310;   Date Range: 3/4/97 - 10/30/14
 
SHARE

PRINT THIS DATA

[ ← Previous Day ]
WEATHER ALMANAC - MARCH 29, 2013
[ Next Day → ]
[ °C ]   °F
Weather ElementAverageHighLow
Temperature37.4 °F42.8 °F (1:00 pm)33.8 °F (5:00 am)
Dewpoint25.5 °F28.4 °F (2:30 am)21.2 °F (9:30 am)
Humidity62.7 %75 % (2:30 am)46 % (3:30 pm)
Barometer29.77 in29.86 in (12:30 am)29.68 in (5:00 pm)
Wind Speed9.2 mph15 mph (5:00 pm)
Weather ElementAverage
Visibility5.8 mi
Wind DirectionENE (79.8 °)

Weather ElementTotal
Precipitation---
Heating Degree Days26.7 (Base 65)
Averaged from 47 records on March 29, 2013
WEATHER CONDITIONS BREAKOUT
WIND DIRECTION BREAKOUT
WEATHER BY HOUR - MARCH 29, 2013
[ °C ]   °F
Local TimeTemperatureDewpointHumidityBarometerVisibilityWind DirectionWind SpeedGust SpeedPrecipitationEventsConditions
12:30 AM35.6 °F26.6 °F70 %29.86 in6.2 miNE (50°)4.6 mphOvercast
1:00 AM35.6 °F26.6 °F70 %29.86 in6.2 miENE (70°)3.5 mphOvercast
1:30 AM35.6 °F26.6 °F70 %29.86 in6.2 miEast (80°)3.5 mphOvercast
2:00 AM35.6 °F26.6 °F70 %29.86 in6.2 miVariable2.3 mphOvercast
2:30 AM35.6 °F28.4 °F75 %29.83 in6.2 miENE (70°)4.6 mphOvercast
3:00 AM35.6 °F28.4 °F75 %29.83 in6.2 miEast (80°)2.3 mphOvercast
3:30 AM35.6 °F26.6 °F70 %29.83 in6.2 miEast (100°)3.5 mphOvercast
4:00 AM35.6 °F26.6 °F70 %29.83 in6.2 miEast (100°)3.5 mphOvercast
4:30 AM35.6 °F26.6 °F70 %29.83 in6.2 miEast (100°)3.5 mphOvercast
5:00 AM33.8 °F26.6 °F75 %29.80 in6.2 miEast (100°)4.6 mphOvercast
5:30 AM35.6 °F24.8 °F65 %29.83 in6.2 miSE (140°)5.8 mphOvercast
6:00 AM33.8 °F24.8 °F70 %29.83 in6.2 miEast (100°)4.6 mphOvercast
6:30 AM33.8 °F24.8 °F70 %29.80 in6.2 miESE (110°)5.8 mphOvercast
7:00 AM33.8 °F24.8 °F70 %29.83 in6.2 miESE (110°)4.6 mphOvercast
7:30 AM33.8 °F24.8 °F70 %29.83 in6.2 miEast (100°)4.6 mphOvercast
8:00 AM33.8 °F24.8 °F70 %29.80 in6.2 miEast (80°)3.5 mphOvercast
8:30 AM33.8 °F23.0 °F65 %29.80 in6.2 miEast (100°)5.8 mphOvercast
9:00 AM35.6 °F23.0 °F60 %29.80 in6.2 miESE (120°)6.9 mphOvercast
9:30 AM35.6 °F21.2 °F56 %29.80 in6.2 miESE (120°)8.1 mphOvercast
10:00 AM37.4 °F23.0 °F56 %29.80 in6.2 miEast (90°)8.1 mphOvercast
10:30 AM39.2 °F24.8 °F56 %29.80 in6.2 miENE (70°)10.4 mphPartly Cloudy
11:00 AM39.2 °F23.0 °F52 %29.77 in6.2 miEast (90°)11.5 mphMostly Cloudy
11:30 AM39.2 °F23.0 °F52 %29.77 in6.2 miEast (90°)11.5 mphPartly Cloudy
12:00 PM41.0 °F24.8 °F53 %29.77 in6.2 miEast (80°)13.8 mphMostly Cloudy
12:30 PM41.0 °F24.8 °F53 %29.77 in6.2 miEast (80°)11.5 mphMostly Cloudy
1:00 PM42.8 °F24.8 °F49 %29.74 in6.2 miNE (50°)12.7 mphPartly Cloudy
1:30 PM42.8 °F26.6 °F53 %29.74 in6.2 miENE (60°)11.5 mphScattered Clouds
2:00 PM41.0 °F26.6 °F57 %29.74 in6.2 miENE (70°)12.7 mphMostly Cloudy
2:30 PM42.8 °F24.8 °F49 %29.74 in6.2 miEast (90°)11.5 mphScattered Clouds
3:00 PM42.8 °F24.8 °F49 %29.71 in6.2 miENE (70°)12.7 mphMostly Cloudy
3:30 PM42.8 °F23.0 °F46 %29.71 in6.2 miEast (90°)10.4 mphScattered Clouds
4:00 PM42.8 °F24.8 °F49 %29.71 in6.2 miEast (80°)12.7 mphMostly Cloudy
4:30 PM42.8 °F26.6 °F53 %29.71 in5.6 miENE (70°)13.8 mphMostly Cloudy
5:00 PM41.0 °F26.6 °F57 %29.68 in6.2 miENE (70°)15.0 mphMostly Cloudy
5:30 PM39.2 °F26.6 °F61 %29.68 in6.2 miENE (70°)15.0 mph
6:00 PM39.2 °F26.6 °F61 %29.68 in5.6 miENE (60°)15.0 mph
6:30 PM39.2 °F26.6 °F61 %29.68 in5.6 miENE (70°)13.8 mph
7:00 PM37.4 °F28.4 °F70 %29.71 in4.3 miENE (60°)13.8 mph
7:30 PM37.4 °F28.4 °F70 %29.71 in4.3 miENE (60°)12.7 mph
8:00 PM35.6 °F26.6 °F70 %29.71 in4.3 miENE (60°)11.5 mph
8:30 PM35.6 °F26.6 °F70 %29.71 in4.3 miENE (70°)11.5 mph
9:00 PM35.6 °F24.8 °F65 %29.71 in4.3 miENE (70°)10.4 mph
9:30 PM35.6 °F24.8 °F65 %29.71 in4.3 miENE (70°)9.2 mph
10:00 PM35.6 °F24.8 °F65 %29.71 in4.3 miENE (70°)11.5 mph
10:30 PM35.6 °F24.8 °F65 %29.71 in4.3 miENE (70°)12.7 mph
11:00 PM35.6 °F24.8 °F65 %29.71 in4.3 miENE (70°)15.0 mph
11:30 PM35.6 °F24.8 °F65 %29.68 in4.3 miENE (70°)13.8 mph
Hourly data recorded from LFOH, located miles away from Le Havre, France







STORIES FROM OUR PARTNERS